Location: Arbon
(43.0005°N, 0.7472°E)
Time: 00:40:52
(UTC+00:00)

S-56A Canister/Altair - Pass Details

Date: 13 December 2020
Orbit: 633 x 2499 km, 38.9° (Epoch: 19 January)

Event Time Altitude Azimuth Distance (km) Brightness Sun altitude
Rises 21:55:44 0° 282° (WNW) 5,551 12.4 -59.0°
Reaches altitude 10° 22:01:27 10° 265° (W) 4,170 11.5 -59.9°
Enters shadow 22:03:23 13° 256° (WSW) 3,778 11.2 -60.2°
